Regional Weather Roundup
Issued by NWS Sioux Falls, SD

Home | Current Version | Previous Version | Text Only | Print | Product List | Glossary On
Versions: 1 2 3 4 5 6 7 8 9 10 11 12 13 14 15 16 17 18 19 20 21 22 23 24 25 26 27 28 29 30 31 32 33 34 35 36 37 38 39 40 41 42 43 44 45 46 47 48 49 50
000
ASUS43 KFSD 242110
RWRFSD

WEATHER ROUNDUP FOR SE SOUTH DAKOTA/SW MINNESOTA/NW IOWA
NATIONAL WEATHER SERVICE SIOUX FALLS SD
400 PM CDT SAT JUN 24 2017

NOTE: "FAIR" INDICATES FEW OR NO CLOUDS BELOW 12,000 FEET WITH NO
SIGNIFICANT WEATHER AND OR OBSTRUCTIONS TO VISIBILITY.


SDZ038>040-050-052>070-242200-
SOUTHEAST SOUTH DAKOTA

CITY           SKY/WX    TMP DP  RH WIND       PRES   REMARKS
BROOKINGS      PTSUNNY   64  41  42 NW21      30.13S
CHAMBERLAIN    SUNNY     74  37  26 W24G31    30.18S
HURON          PTSUNNY   69  41  36 NW21G31   30.14S
MADISON        MOCLDY    64  41  42 NW20G31   30.14S
MITCHELL       SUNNY     75  32  20 NW23G37   30.14F
SIOUX FALLS    MOSUNNY   69  42  37 NW26G33   30.12R
WINNER         MOCLDY    75  35  23 NW16G30   30.19S
YANKTON        SUNNY     75  38  26 NW24G37   30.14S
$$

MNZ071-072-080-081-089-090-097-098-242200-
SOUTHWEST MINNESOTA

CITY           SKY/WX    TMP DP  RH WIND       PRES   REMARKS
FAIRMONT       PTSUNNY   67  45  45 NW21G33   30.07R
JACKSON        MOSUNNY   66  39  37 W23G35    30.10R
LUVERNE        PTSUNNY   68  36  30 NW18G28   30.13R
MARSHALL       PTSUNNY   65  41  41 N23G29    30.09S
MONTEVIDEO     MOSUNNY   66  43  42 N18G29    30.08S
PIPESTONE      MOSUNNY   64  39  39 NW18G24   30.13R
REDWOOD FALLS  MOSUNNY   65  40  39 NW15G25   30.07R
TRACY          MOSUNNY   65  41  41 NW17      30.11R
WINDOM         MOSUNNY   64  37  36 W23G30    30.10R
WORTHINGTON    CLOUDY    64  42  44 NW24G31   30.12R
$$

IAZ001>003-012>014-020>022-031-032-NEZ013-014-SDZ071-242200-
NORTHWEST IOWA

CITY           SKY/WX    TMP DP  RH WIND       PRES   REMARKS
CHEROKEE       PTSUNNY   73  39  29 NW22G31   30.10F
DENISON        MOSUNNY   77  37  24 W18G30    30.13S
ESTHERVILLE    PTSUNNY   68  43  40 NW26G36   30.08R
LE MARS        MOSUNNY   73  39  29 NW20G26   30.12S
ORANGE CITY    MOSUNNY   72  43  35 NW26G35   30.11S
SHELDON        MOSUNNY   72  39  30 NW20G30   30.09S
SIOUX CITY     MOSUNNY   78  38  23 NW25G31   30.11S
SPENCER        MOSUNNY   72  37  28 NW23G38   30.09R
STORM LAKE     SUNNY     73  39  29 NW21G31   30.10S
$$

ABBREVIATIONS USED IN REMARKS
   TC - TEMPERATURE IN CELSIUS
  WCI - WIND CHILL INDEX
   HX - HEAT INDEX
  VSB - VISIBILITY




USA.gov is the U.S. government's official web portal to all federal, state and local government web resources and services.